TimeMST,TemperatureF,Dew PointF,Humidity,Sea Level PressureIn,VisibilityMPH,Wind Direction,Wind SpeedMPH,Gust SpeedMPH,PrecipitationIn,Events,Conditions,WindDirDegrees,DateUTC
12:53 AM,18.0,8.1,65,30.53,10.0,WSW,6.9,-,N/A,,Clear,240,2012-11-23 07:53:00
1:53 AM,12.9,5.0,71,30.57,10.0,WNW,4.6,-,N/A,,Clear,300,2012-11-23 08:53:00
2:53 AM,10.9,5.0,77,30.57,10.0,Calm,Calm,-,N/A,,Clear,0,2012-11-23 09:53:00
3:53 AM,15.1,7.0,70,30.54,10.0,SW,3.5,-,N/A,,Clear,220,2012-11-23 10:53:00
4:53 AM,17.1,8.1,68,30.55,10.0,WSW,12.7,-,N/A,,Clear,250,2012-11-23 11:53:00
5:53 AM,19.9,8.1,60,30.56,10.0,WSW,15.0,-,N/A,,Clear,240,2012-11-23 12:53:00
6:53 AM,21.9,8.1,55,30.56,10.0,WSW,10.4,-,N/A,,Clear,240,2012-11-23 13:53:00
7:53 AM,28.9,10.9,47,30.52,10.0,SW,11.5,-,N/A,,Clear,220,2012-11-23 14:53:00
8:53 AM,35.1,10.0,35,30.51,10.0,SSW,17.3,24.2,N/A,,Clear,210,2012-11-23 15:53:00
9:53 AM,36.0,10.0,34,30.50,10.0,SSW,24.2,32.2,N/A,,Clear,210,2012-11-23 16:53:00
10:53 AM,41.0,10.9,29,30.48,10.0,SSW,25.3,33.4,N/A,,Clear,200,2012-11-23 17:53:00
11:53 AM,43.0,9.0,25,30.43,10.0,SSW,25.3,33.4,N/A,,Clear,210,2012-11-23 18:53:00
12:53 PM,46.0,9.0,22,30.36,10.0,SW,23.0,34.5,N/A,,Clear,220,2012-11-23 19:53:00
1:53 PM,48.0,9.0,21,30.35,10.0,SSW,24.2,29.9,N/A,,Clear,210,2012-11-23 20:53:00
2:53 PM,46.9,10.0,22,30.35,10.0,SW,17.3,27.6,N/A,,Clear,220,2012-11-23 21:53:00
3:53 PM,46.9,10.0,22,30.32,10.0,SSW,11.5,-,N/A,,Clear,210,2012-11-23 22:53:00
4:53 PM,45.0,10.9,25,30.29,10.0,SW,21.9,-,N/A,,Clear,230,2012-11-23 23:53:00
5:53 PM,42.1,10.9,28,30.30,10.0,WSW,16.1,-,N/A,,Clear,240,2012-11-24 00:53:00
6:53 PM,42.1,12.0,29,30.29,10.0,West,9.2,-,N/A,,Clear,260,2012-11-24 01:53:00
7:53 PM,43.0,14.0,31,30.24,10.0,SW,9.2,-,N/A,,Clear,220,2012-11-24 02:53:00
8:53 PM,45.0,14.0,29,30.19,10.0,SW,17.3,-,N/A,,Clear,220,2012-11-24 03:53:00
9:53 PM,46.0,15.1,29,30.17,10.0,WSW,16.1,-,N/A,,Clear,240,2012-11-24 04:53:00
10:53 PM,46.0,16.0,30,30.11,10.0,SW,24.2,31.1,N/A,,Clear,230,2012-11-24 05:53:00
11:53 PM,46.0,16.0,30,30.09,10.0,SW,23.0,29.9,N/A,,Clear,220,2012-11-24 06:53:00